Weather History for Ahoskie, NC

Change the Weather History Date:

Sunday, February 10, 2013

  Actual Average (KEMV) Record (KEMV)
Temperature  
Mean Temperature 36 °F -  
Max Temperature 50 °F 51 °F 72 °F (1990)
Min Temperature 22 °F 25 °F 11 °F (1989)
Degree Days  
Heating Degree Days 29    
Moisture  
Dew Point 24 °F    
Average Humidity 65    
Maximum Humidity 89    
Minimum Humidity 29    
Precipitation  
Precipitation 0.00 in - - ()
Sea Level Pressure  
Sea Level Pressure 30.41 in    
Wind  
Wind Speed 1 mph (SE)    
Max Wind Speed 8 mph    
Max Gust Speed -    
Visibility 10 miles    
Events      
Averages and records for this station are not official NWS values.
T = Trace of Precipitation, MM = Missing Value Source: NWS Daily Summary

Daily Weather History Graph

Daily Weather History Graph

Search for Another Location

Airport:

Trip Planner

Search our weather history database for the weather conditions in past years. The results will help you decide how hot, cold, wet, or windy it might be!

Date:

Astronomy

Feb. 10, 2013 Rise Set
Actual Time 7:01 AM EST 5:44 PM EST
Civil Twilight 6:34 AM EST 6:11 PM EST
Nautical Twilight 6:04 AM EST 6:41 PM EST
Astronomical Twilight 5:34 AM EST 7:11 PM EST
Moon 6:52 AM EST (2/10) 6:30 PM EST (2/10)
Length of Visible Light 11h 36m
Length of Day
10h 43m
Waxing Crescent, 0% of the Moon is Illuminated
Feb 10
Waxing Crescent
Feb 17
First Quarter
Feb 25
Full
Mar 4
Last Quarter
Mar 11
New

Hourly Weather History & Observations

Time (EST) Temp. Windchill Dew Point Humidity Pressure Visibility Wind Dir Wind Speed Gust Speed Precip Events Conditions
12:15 AM 27.0 °F - 22.8 °F 84% 30.39 in 10.0 mi Calm Calm - N/A   Clear
12:35 AM 27.7 °F - 23.0 °F 83% 30.39 in 10.0 mi Calm Calm - N/A   Clear
12:55 AM 25.3 °F - 21.4 °F 85% 30.40 in 10.0 mi Calm Calm - N/A   Clear
1:15 AM 25.5 °F - 21.0 °F 83% 30.40 in 10.0 mi Calm Calm - N/A   Clear
1:35 AM 25.3 °F - 21.0 °F 84% 30.40 in 10.0 mi Calm Calm - N/A   Clear
1:55 AM 25.3 °F - 21.9 °F 87% 30.41 in 10.0 mi Calm Calm - N/A   Clear
2:15 AM 25.3 °F - 21.2 °F 84% 30.41 in 10.0 mi Calm Calm - N/A   Clear
2:35 AM 25.3 °F - 21.6 °F 86% 30.42 in 10.0 mi Calm Calm - N/A   Clear
2:55 AM 25.3 °F - 22.1 °F 87% 30.41 in 10.0 mi Calm Calm - N/A   Clear
3:15 AM 25.3 °F - 22.1 °F 87% 30.42 in 10.0 mi Calm Calm - N/A   Clear
3:35 AM 25.3 °F - 22.1 °F 87% 30.41 in 10.0 mi Calm Calm - N/A   Clear
3:55 AM 25.3 °F - 22.1 °F 87% 30.42 in 10.0 mi Calm Calm - N/A   Clear
4:15 AM 25.3 °F - 22.6 °F 89% 30.42 in 10.0 mi Calm Calm - N/A   Clear
4:35 AM 23.4 °F - 20.7 °F 89% 30.43 in 10.0 mi Calm Calm - N/A   Clear
4:55 AM 25.3 °F - 22.1 °F 87% 30.43 in 10.0 mi Calm Calm - N/A   Clear
5:15 AM 22.8 °F - 20.1 °F 89% 30.45 in 10.0 mi Calm Calm - N/A   Clear
5:35 AM 22.8 °F - 20.1 °F 89% 30.45 in 10.0 mi Calm Calm - N/A   Clear
5:55 AM 24.8 °F - 21.9 °F 89% 30.45 in 10.0 mi Calm Calm - N/A   Clear
6:15 AM 22.8 °F - 20.1 °F 89% 30.45 in 10.0 mi Calm Calm - N/A   Clear
6:35 AM 22.8 °F - 20.1 °F 89% 30.46 in 10.0 mi Calm Calm - N/A   Clear
6:55 AM 22.8 °F - 20.1 °F 89% 30.47 in 10.0 mi Calm Calm - N/A   Clear
7:15 AM 22.8 °F - 20.1 °F 89% 30.47 in 10.0 mi Calm Calm - N/A   Clear
7:35 AM 22.8 °F - 20.1 °F 89% 30.48 in 10.0 mi Calm Calm - N/A   Clear
7:55 AM 25.3 °F - 22.5 °F 89% 30.48 in 10.0 mi Calm Calm - N/A   Clear
8:15 AM 25.5 °F - 22.5 °F 88% 30.49 in 10.0 mi Calm Calm - N/A   Clear
8:35 AM 30.2 °F - 26.6 °F 86% 30.50 in 10.0 mi Calm Calm - N/A   Clear
8:55 AM 30.4 °F - 23.7 °F 76% 30.50 in 10.0 mi Calm Calm - N/A   Clear
9:15 AM 32.5 °F - 25.3 °F 75% 30.50 in 10.0 mi Calm Calm - N/A   Clear
9:35 AM 34.9 °F - 25.5 °F 69% 30.50 in 10.0 mi Calm Calm - N/A   Clear
9:55 AM 35.1 °F 32.2 °F 23.4 °F 62% 30.51 in 10.0 mi ENE 3.5 mph - N/A   Clear
10:15 AM 36.5 °F 32.7 °F 23.0 °F 58% 30.50 in 10.0 mi ENE 4.6 mph - N/A   Clear
10:35 AM 37.6 °F 33.1 °F 23.4 °F 57% 30.50 in 10.0 mi SE 5.8 mph - N/A   Clear
10:55 AM 38.1 °F 35.7 °F 21.6 °F 51% 30.50 in 10.0 mi ESE 3.5 mph - N/A   Clear
11:15 AM 39.0 °F - 21.7 °F 50% 30.50 in 10.0 mi Calm Calm - N/A   Clear
11:35 AM 40.5 °F - 23.2 °F 50% 30.49 in 10.0 mi Calm Calm - N/A   Clear
11:55 AM 45.1 °F 43.7 °F 24.3 °F 44% 30.49 in 10.0 mi South 3.5 mph - N/A   Clear
12:15 PM 45.1 °F 43.7 °F 23.0 °F 42% 30.46 in 10.0 mi ESE 3.5 mph - N/A   Clear
12:35 PM 45.1 °F 43.7 °F 22.6 °F 41% 30.45 in 10.0 mi East 3.5 mph - N/A   Clear
1:15 PM 45.1 °F 42.8 °F 19.4 °F 36% 30.44 in 10.0 mi SSE 4.6 mph - N/A   Clear
1:35 PM 47.5 °F - 21.9 °F 36% 30.43 in 10.0 mi SSE 3.5 mph - N/A   Clear
1:55 PM 50.0 °F - 21.0 °F 32% 30.43 in 10.0 mi Calm Calm - N/A   Clear
2:15 PM 50.0 °F - 21.6 °F 33% 30.42 in 10.0 mi Calm Calm - N/A   Clear
2:35 PM 50.0 °F - 21.7 °F 33% 30.41 in 10.0 mi South 3.5 mph - N/A   Clear
2:55 PM 50.0 °F - 19.8 °F 30% 30.40 in 10.0 mi SSE 6.9 mph - N/A   Clear
3:15 PM 50.0 °F - 22.1 °F 33% 30.40 in 10.0 mi SSE 5.8 mph - N/A   Clear
3:35 PM 50.0 °F - 20.3 °F 31% 30.38 in 10.0 mi SSE 6.9 mph - N/A   Clear
3:55 PM 50.0 °F - 19.2 °F 30% 30.37 in 10.0 mi SSE 5.8 mph - N/A   Clear
4:15 PM 50.2 °F - 19.0 °F 29% 30.37 in 10.0 mi South 8.1 mph - N/A   Clear
4:35 PM 50.0 °F - 19.2 °F 30% 30.36 in 10.0 mi SSE 8.1 mph - N/A   Clear
4:55 PM 50.0 °F - 22.1 °F 33% 30.36 in 10.0 mi SSE 6.9 mph - N/A   Clear
5:15 PM 50.0 °F - 24.6 °F 37% 30.36 in 10.0 mi SSE 3.5 mph - N/A   Clear
5:35 PM 47.3 °F - 23.5 °F 39% 30.36 in 10.0 mi Calm Calm - N/A   Clear
5:55 PM 45.1 °F - 24.3 °F 44% 30.37 in 10.0 mi Calm Calm - N/A   Clear
6:15 PM 45.1 °F - 27.9 °F 51% 30.36 in 10.0 mi Calm Calm - N/A   Clear
6:35 PM 44.2 °F - 27.7 °F 52% 30.37 in 10.0 mi Calm Calm - N/A   Clear
6:55 PM 43.9 °F 42.3 °F 28.9 °F 56% 30.36 in 10.0 mi ESE 3.5 mph - N/A   Clear
7:15 PM 45.1 °F 43.7 °F 31.1 °F 58% 30.36 in 10.0 mi SE 3.5 mph - N/A   Clear
7:35 PM 44.6 °F 43.1 °F 31.3 °F 60% 30.35 in 10.0 mi SSE 3.5 mph - N/A   Clear
7:55 PM 42.8 °F 41.1 °F 29.8 °F 60% 30.36 in 10.0 mi ESE 3.5 mph - N/A   Clear
8:15 PM 42.8 °F - 30.7 °F 62% 30.35 in 10.0 mi Calm Calm - N/A   Clear
8:35 PM 42.8 °F - 32.0 °F 66% 30.35 in 10.0 mi Calm Calm - N/A   Clear
8:55 PM 42.8 °F 41.1 °F 32.9 °F 68% 30.35 in 10.0 mi SE 3.5 mph - N/A   Clear
9:15 PM 42.8 °F - 32.0 °F 66% 30.35 in 10.0 mi Calm Calm - N/A   Scattered Clouds
9:35 PM 42.8 °F 41.1 °F 32.0 °F 66% 30.34 in 10.0 mi SE 3.5 mph - N/A   Scattered Clouds
9:55 PM 42.8 °F - 32.0 °F 66% 30.33 in 10.0 mi Calm Calm - N/A   Scattered Clouds
10:15 PM 42.8 °F - 32.5 °F 67% 30.34 in 10.0 mi Calm Calm - N/A   Mostly Cloudy
10:35 PM 42.8 °F - 32.4 °F 67% 30.34 in 10.0 mi Calm Calm - N/A   Overcast
10:55 PM 42.8 °F 41.1 °F 32.7 °F 68% 30.33 in 10.0 mi SE 3.5 mph - N/A   Scattered Clouds
11:15 PM 42.8 °F 41.1 °F 32.9 °F 68% 30.32 in 10.0 mi SE 3.5 mph - N/A   Scattered Clouds
11:35 PM 42.8 °F 41.1 °F 32.9 °F 68% 30.31 in 10.0 mi SE 3.5 mph - N/A   Mostly Cloudy
11:55 PM 42.8 °F 40.1 °F 32.7 °F 68% 30.30 in 10.0 mi SE 4.6 mph - N/A   Mostly Cloudy